Vorticity
7 7 7 6 6 5 8 9 7 7 6 9 13 13 14 15 14 12 17 19 6 -1 7 1 -6 14 14 -0 3 1 22 3 22 24 10 6 17 6 9 29 10 5 -8 32 6 10 19 16 11 12 10 9 31 13
9 9 6 7 7 5 5 6 5 8 6 11 13 15 15 15 15 12 15 18 7 6 -3 16 24 4 6 6 -1 6 -11 7 -11 -5 5 20 17 7 17 11 47 -4 -32 -5 3 21 -3 10 12 18 15 12 17 19
4 3 6 6 4 1 4 3 6 7 4 12 14 15 17 18 17 11 13 22 9 8 11 10 14 -5 -16 8 13 3 5 12 4 6 -3 26 26 26 6 15 15 -36 63 -17 10 11 7 17 3 28 14 14 19 15
4 3 6 6 7 5 5 3 1 4 1 13 15 17 20 12 10 13 14 18 11 6 5 -2 -6 27 30 23 16 14 10 19 8 2 23 5 7 17 16 -19 15 11 6 7 4 6 18 0 7 13 7 15 13 12
8 5 6 7 4 4 7 5 -2 12 4 11 14 26 7 19 17 15 10 14 16 6 -12 34 34 22 9 -2 6 14 11 20 11 13 17 5 -7 23 31 9 21 11 27 21 17 20 9 11 18 11 7 13 13 9
4 10 5 11 1 4 6 6 -4 14 4 9 26 14 17 17 19 25 3 13 27 6 8 4 -10 32 18 18 16 9 5 9 9 8 26 9 -4 -6 10 21 -5 17 26 47 24 9 5 4 9 9 5 8 18 13
1 10 8 12 2 8 2 4 -2 12 7 19 20 16 20 23 18 -1 -3 7 27 18 4 13 19 34 27 13 19 31 -1 5 9 14 16 27 14 -20 15 3 25 -4 22 1 -2 2 8 7 8 9 10 10 9 17
6 17 -1 6 11 0 16 3 1 10 8 24 18 21 14 17 0 16 14 8 8 14 11 3 -13 -22 5 16 9 5 9 7 16 20 12 12 24 12 15 -31 -12 12 6 3 5 6 4 5 9 10 9 11 12 14
9 9 9 16 18 4 1 2 10 9 22 16 25 16 13 4 15 11 38 22 14 22 19 4 8 12 12 22 10 5 13 9 16 20 9 1 23 1 17 13 11 -7 7 2 14 8 3 1 2 4 5 7 9 2
-0 3 15 16 11 1 4 15 13 14 19 22 16 9 12 19 8 10 35 12 20 9 23 -4 9 19 -18 21 14 15 19 17 7 27 38 25 4 -1 13 23 54 -8 -19 -2 5 24 12 5 11 4 6 6 8 7
19 15 17 6 7 8 23 12 9 21 17 19 11 3 17 18 13 25 13 -1 7 18 35 13 5 1 14 6 43 -10 26 12 10 26 2 17 31 16 7 4 16 30 15 18 -6 -12 -9 -11 -6 12 7 7 9 9
10 11 6 8 12 15 7 9 19 15 26 12 12 16 20 4 21 6 35 16 4 32 -12 32 30 1 2 -9 13 34 19 11 4 21 6 18 25 32 26 8 4 -8 -11 1 24 8 -2 13 10 17 11 5 7 9
13 12 11 17 7 7 9 18 16 24 11 10 20 37 7 12 11 11 7 14 16 -2 14 10 22 29 4 -8 19 5 24 17 -1 11 9 11 4 4 14 24 43 31 13 39 15 28 23 12 24 9 13 13 16 10
11 9 15 2 5 9 18 19 18 24 -3 9 -3 1 1 18 31 -14 27 -16 15 12 29 30 19 36 6 2 -3 10 8 9 12 12 2 -13 -3 24 -3 10 19 13 26 32 20 14 15 12 4 13 13 15 21 9
7 10 5 3 8 18 18 13 31 18 -6 -28 23 13 -6 4 3 38 3 4 57 -29 -7 3 13 15 20 -10 14 -0 18 15 10 1 -9 25 23 15 20 10 5 8 13 9 14 11 10 10 7 4 6 6 0 8
13 6 6 8 18 18 12 23 27 11 -2 -27 14 4 13 29 -4 13 23 13 7 53 34 27 -2 27 5 0 5 0 9 17 4 -7 6 -1 17 8 3 12 27 16 5 11 6 16 20 16 10 6 9 5 7 3
5 10 10 20 18 11 17 30 20 -2 10 21 13 26 -2 30 11 -12 23 12 6 32 -9 -15 14 3 6 22 12 16 2 -20 14 -2 16 15 26 24 20 10 26 23 23 31 22 7 14 16 17 13 9 8 11 18
10 14 23 17 12 18 28 20 -6 -15 25 -11 19 8 -7 -24 26 16 -8 13 19 5 22 -0 -29 11 -23 12 15 39 46 22 -25 -18 14 -8 7 19 2 4 -3 -1 16 13 21 14 7 9 9 12 13 14 13 12
19 19 13 19 21 20 21 22 -24 18 7 12 4 -10 11 19 16 -15 24 1 15 18 21 24 -15 38 7 -16 -6 -13 3 14 33 26 27 18 -1 6 9 6 0 11 15 17 18 23 17 12 11 10 9 15 17 19
11 13 19 26 20 14 16 -6 27 -34 25 4 10 22 6 -5 5 9 23 -8 12 17 28 9 3 2 -1 32 21 5 5 -2 20 13 -2 -4 11 4 7 10 19 1 4 17 16 24 24 21 10 11 16 19 19 16
15 21 14 30 18 11 -23 8 17 45 -35 14 28 13 14 28 9 -5 -1 27 -2 2 2 -1 -1 25 8 4 24 3 -0 7 -2 -7 9 10 5 16 -16 -2 24 -8 6 21 13 21 18 14 16 20 16 15 15 18
16 14 20 9 7 25 -33 13 18 7 18 17 -30 7 2 3 19 25 21 -8 -15 -10 -5 -5 -12 -4 2 1 2 14 6 7 -0 8 22 19 9 10 25 12 15 17 20 19 12 15 22 20 22 19 14 16 17 16
11 25 16 10 -1 14 42 -12 -15 3 24 20 25 -11 -6 16 20 -4 -3 17 22 17 10 -2 4 3 6 11 25 14 5 3 14 19 16 4 8 1 -0 3 6 20 15 17 11 17 27 22 16 11 13 14 14 13
15 27 -3 7 26 -5 32 12 48 2 4 18 34 33 23 -7 -12 2 14 18 14 9 5 5 1 6 -6 2 8 17 15 19 3 -1 -3 7 17 9 26 5 4 18 13 16 14 19 21 14 13 12 13 13 15 17
27 4 -24 21 21 22 -4 25 -4 7 -3 11 4 -6 6 20 26 32 9 -4 15 24 27 26 22 23 25 22 20 23 32 10 14 15 24 8 10 15 14 28 10 15 5 18 18 16 11 13 14 10 13 16 19 17
8 36 -23 33 25 9 13 11 3 -4 3 28 32 17 9 16 19 1 4 13 14 13 9 21 18 8 13 15 10 10 13 -1 -4 5 15 13 17 10 21 14 17 8 8 15 23 13 11 13 15 16 20 19 15 13
-6 64 13 11 27 -9 -0 39 43 51 -10 -18 5 30 24 2 16 9 14 -1 -10 -3 1 13 8 16 18 18 17 21 18 17 18 16 10 17 11 17 27 5 14 12 3 22 24 17 12 16 17 18 16 14 11 10
20 40 16 18 29 26 -7 -12 8 18 31 9 23 17 -3 -5 3 1 -2 18 20 16 10 4 21 12 -16 -11 15 22 27 8 7 9 10 17 13 24 16 8 16 15 7 20 28 18 10 20 15 12 10 9 10 11
29 28 29 18 9 24 5 13 -1 7 -4 8 5 17 -9 7 4 1 5 -2 -2 -10 12 7 8 -22 18 -4 10 15 26 22 17 13 11 16 -0 5 8 14 25 12 8 24 21 19 18 18 9 7 7 9 11 11
1 13 18 27 20 3 7 2 11 10 28 9 15 13 8 8 3 7 13 11 -8 -13 19 28 32 18 19 36 29 25 37 19 9 3 19 1 11 28 22 12 18 7 15 26 18 15 11 8 7 8 10 11 10 11
8 9 4 4 9 17 12 10 10 8 5 5 4 4 -1 0 8 6 9 1 5 33 27 26 25 31 23 18 24 25 19 12 -0 24 -10 21 24 13 16 20 14 22 25 16 13 11 14 19 17 14 12 12 11 10
-2 -5 3 9 4 -0 0 4 7 8 13 20 25 28 28 21 5 12 24 26 24 22 24 10 1 21 22 0 4 7 14 16 13 25 36 10 23 -1 16 11 20 14 13 15 14 12 14 16 17 15 13 11 9 8
4 -4 -2 -1 2 11 20 29 31 34 33 34 31 27 30 28 28 33 24 20 25 28 27 30 26 18 16 18 22 23 21 21 25 23 11 10 35 34 21 12 13 14 14 15 17 15 15 13 11 10 10 8 11 11
Height
3040 3044 3048 3051 3054 3056 3056 3057 3058 3058 3057 3056 3055 3054 3054 3054 3054 3054 3059 3061 3062 3060 3060 3065 3068 3068 3070 3071 3070 3069 3067 3063 3064 3064 3065 3065 3064 3064 3065 3066 3068 3072 3075 3078 3084 3084 3082 3079 3081 3083 3082 3081 3082 3084
3035 3039 3042 3046 3048 3049 3051 3052 3053 3052 3051 3050 3049 3048 3048 3048 3049 3049 3052 3056 3058 3057 3055 3059 3061 3064 3067 3070 3069 3067 3068 3066 3068 3066 3067 3061 3062 3063 3064 3065 3068 3072 3072 3074 3078 3078 3078 3078 3079 3079 3080 3081 3081 3082
3029 3033 3036 3039 3041 3044 3046 3047 3047 3047 3046 3044 3043 3042 3042 3042 3044 3045 3047 3051 3052 3052 3050 3052 3056 3064 3062 3063 3067 3064 3062 3064 3064 3066 3064 3062 3061 3062 3063 3065 3067 3069 3071 3073 3076 3076 3077 3077 3078 3078 3080 3081 3081 3081
3023 3026 3030 3033 3035 3038 3040 3041 3041 3041 3040 3038 3037 3036 3036 3037 3039 3040 3041 3046 3048 3049 3046 3046 3051 3052 3057 3058 3060 3060 3061 3059 3059 3062 3060 3059 3055 3058 3061 3064 3065 3067 3070 3071 3072 3073 3075 3076 3078 3079 3080 3082 3081 3082
3016 3020 3023 3027 3029 3031 3033 3035 3035 3035 3033 3032 3030 3030 3031 3032 3033 3035 3036 3039 3042 3047 3043 3042 3044 3049 3051 3054 3055 3057 3056 3056 3056 3057 3057 3058 3059 3060 3060 3061 3063 3064 3064 3066 3069 3073 3074 3076 3076 3078 3079 3081 3082 3083
3008 3012 3016 3019 3022 3024 3027 3028 3029 3028 3026 3025 3024 3025 3025 3027 3029 3030 3031 3034 3036 3041 3044 3041 3042 3043 3044 3047 3049 3051 3052 3052 3053 3052 3053 3052 3059 3058 3059 3061 3062 3063 3063 3065 3069 3071 3073 3075 3076 3077 3079 3080 3082 3083
2999 3004 3008 3011 3015 3017 3020 3021 3021 3021 3020 3019 3019 3019 3020 3022 3024 3025 3027 3031 3036 3039 3041 3042 3040 3041 3042 3042 3044 3046 3049 3048 3050 3048 3048 3049 3055 3055 3055 3057 3060 3064 3066 3067 3069 3071 3073 3074 3075 3077 3078 3080 3081 3083
2990 2995 2999 3003 3006 3010 3012 3013 3014 3014 3014 3013 3013 3014 3015 3017 3019 3019 3022 3027 3030 3035 3039 3039 3038 3038 3038 3038 3041 3043 3045 3046 3044 3045 3046 3048 3052 3052 3050 3055 3058 3062 3065 3067 3069 3071 3071 3073 3075 3076 3077 3078 3080 3082
2981 2986 2991 2994 2998 3002 3004 3006 3007 3007 3007 3008 3008 3009 3011 3012 3015 3018 3020 3023 3026 3033 3031 3033 3034 3036 3038 3038 3038 3041 3042 3042 3042 3038 3041 3047 3043 3040 3042 3050 3056 3060 3061 3065 3066 3069 3070 3072 3073 3074 3076 3076 3078 3080
2972 2977 2981 2986 2990 2993 2996 2998 2999 3000 3002 3002 3004 3006 3007 3008 3013 3016 3018 3022 3022 3022 3024 3025 3031 3032 3036 3035 3037 3039 3038 3038 3035 3034 3037 3035 3033 3036 3040 3045 3049 3056 3058 3060 3062 3064 3067 3069 3071 3072 3073 3074 3076 3077
2963 2967 2972 2977 2981 2985 2987 2990 2992 2994 2996 2998 3000 3003 3004 3007 3010 3012 3013 3016 3017 3017 3017 3020 3026 3029 3033 3032 3034 3035 3029 3031 3030 3031 3032 3029 3024 3030 3038 3040 3044 3047 3051 3055 3057 3060 3062 3064 3067 3068 3070 3071 3072 3075
2954 2959 2964 2968 2973 2977 2980 2983 2985 2987 2992 2996 2999 3000 3002 3004 3006 3007 3006 3009 3008 3010 3012 3016 3022 3027 3030 3029 3030 3029 3028 3027 3027 3028 3030 3026 3024 3029 3033 3035 3039 3043 3046 3049 3051 3054 3056 3059 3061 3063 3065 3067 3069 3071
2945 2950 2955 2960 2965 2969 2972 2975 2978 2983 2987 2990 2992 2994 2995 2997 2998 2997 2996 2998 3003 3006 3009 3014 3018 3022 3026 3029 3027 3027 3021 3022 3025 3024 3024 3025 3026 3028 3029 3032 3034 3033 3035 3037 3042 3046 3050 3053 3054 3057 3059 3062 3065 3067
2937 2942 2947 2952 2956 2960 2964 2968 2972 2976 2981 2984 2985 2986 2986 2984 2985 2986 2990 2996 3002 3007 3008 3012 3016 3019 3021 3025 3025 3023 3022 3020 3020 3021 3022 3024 3026 3027 3027 3029 3030 3031 3031 3033 3037 3041 3044 3047 3050 3052 3054 3058 3061 3063
2929 2934 2939 2943 2948 2952 2956 2961 2965 2970 2974 2976 2976 2975 2975 2979 2981 2985 2990 2993 2996 3004 3007 3011 3014 3017 3018 3020 3020 3021 3018 3016 3017 3019 3021 3022 3023 3024 3025 3026 3026 3025 3027 3030 3032 3034 3037 3040 3043 3046 3050 3053 3056 3059
2921 2924 2929 2936 2940 2944 2949 2953 2957 2963 2966 2967 2965 2966 2971 2977 2981 2983 2987 2989 2993 2996 3004 3008 3009 3010 3011 3012 3011 3012 3013 3012 3015 3014 3016 3019 3019 3019 3019 3020 3020 3021 3022 3024 3026 3027 3030 3033 3036 3040 3043 3045 3049 3053
2911 2912 2923 2927 2932 2937 2941 2945 2951 2954 2957 2955 2956 2963 2968 2973 2978 2982 2984 2986 2990 2994 2996 2998 2999 3002 3005 3004 3004 3005 3005 3010 3011 3011 3011 3014 3016 3016 3016 3017 3017 3016 3017 3018 3019 3021 3023 3026 3028 3030 3033 3037 3041 3046
2899 2908 2915 2921 2925 2930 2933 2937 2943 2944 2943 2945 2951 2958 2966 2970 2973 2977 2982 2984 2985 2989 2993 2993 2996 2997 2998 2998 2999 3001 3005 3008 3008 3008 3007 3010 3011 3011 3013 3014 3014 3014 3014 3014 3013 3012 3014 3018 3021 3024 3027 3031 3034 3038
2894 2901 2908 2913 2918 2923 2927 2931 2933 2933 2936 2943 2948 2955 2961 2966 2970 2974 2977 2979 2981 2985 2989 2991 2993 2989 2993 2996 2997 2999 3001 3003 3004 3005 3005 3006 3007 3007 3008 3009 3010 3010 3009 3007 3006 3006 3008 3012 3015 3018 3021 3023 3027 3031
2888 2894 2901 2908 2914 2919 2923 2925 2926 2928 2932 2937 2942 2947 2954 2960 2966 2969 2973 2974 2977 2980 2981 2982 2984 2986 2991 2994 2996 3000 2998 2997 2998 3000 3000 3002 3002 3003 3004 3004 3004 3004 3004 3002 3001 3001 3003 3005 3008 3011 3012 3015 3019 3024
2881 2888 2896 2902 2909 2913 2915 2915 2918 2922 2928 2933 2937 2943 2947 2953 2956 2961 2966 2969 2971 2971 2973 2975 2979 2982 2986 2989 2990 2992 2993 2994 2994 2993 2994 2995 2998 2999 2998 2998 2998 2998 2997 2996 2996 2995 2997 2999 3000 3003 3005 3009 3014 3018
2873 2883 2889 2896 2901 2904 2906 2908 2914 2918 2923 2928 2934 2937 2940 2942 2945 2951 2959 2963 2962 2964 2967 2971 2974 2978 2981 2983 2984 2986 2987 2987 2988 2987 2987 2988 2991 2993 2993 2993 2992 2992 2991 2990 2990 2989 2990 2992 2995 2997 3000 3003 3007 3011
2869 2875 2882 2889 2895 2897 2900 2905 2911 2914 2917 2920 2928 2932 2932 2934 2938 2949 2944 2945 2949 2955 2961 2964 2966 2969 2972 2974 2976 2977 2978 2979 2979 2979 2980 2983 2985 2985 2985 2986 2985 2985 2985 2985 2984 2985 2986 2987 2989 2991 2994 2998 3001 3004
2864 2870 2875 2881 2886 2890 2894 2896 2902 2910 2912 2914 2917 2920 2921 2925 2932 2932 2930 2934 2939 2946 2949 2953 2957 2959 2961 2963 2965 2967 2969 2970 2971 2972 2975 2976 2976 2977 2978 2978 2979 2979 2979 2979 2980 2981 2982 2983 2984 2987 2991 2994 2997 3001
2860 2865 2870 2872 2875 2881 2884 2890 2896 2901 2902 2905 2910 2911 2912 2919 2919 2920 2920 2925 2931 2934 2937 2942 2945 2947 2949 2951 2954 2957 2961 2962 2963 2964 2967 2967 2968 2968 2969 2970 2971 2973 2974 2974 2974 2975 2978 2980 2982 2983 2987 2990 2993 2996
2852 2855 2861 2861 2867 2873 2875 2880 2882 2887 2895 2899 2901 2903 2908 2910 2912 2911 2912 2917 2921 2926 2929 2931 2934 2937 2939 2942 2944 2946 2951 2954 2955 2953 2956 2959 2959 2959 2961 2962 2965 2967 2968 2968 2969 2970 2973 2974 2977 2978 2983 2987 2990 2992
2845 2847 2851 2854 2860 2866 2868 2873 2879 2883 2888 2890 2893 2896 2900 2902 2901 2902 2905 2909 2913 2917 2919 2922 2923 2924 2927 2930 2933 2936 2938 2940 2941 2943 2946 2948 2949 2951 2952 2955 2958 2960 2961 2961 2962 2965 2966 2969 2971 2974 2979 2983 2986 2989
2840 2841 2843 2847 2851 2858 2863 2870 2873 2875 2879 2883 2888 2889 2890 2890 2890 2893 2897 2900 2903 2906 2909 2911 2913 2915 2917 2919 2922 2925 2926 2928 2931 2932 2935 2938 2941 2943 2945 2949 2951 2953 2954 2955 2957 2959 2959 2964 2968 2971 2975 2979 2983 2986
2835 2838 2845 2848 2853 2857 2862 2865 2867 2869 2871 2876 2878 2879 2878 2879 2884 2887 2889 2891 2895 2899 2901 2902 2904 2905 2907 2908 2910 2912 2914 2916 2919 2922 2926 2931 2935 2938 2940 2942 2944 2946 2948 2950 2952 2955 2956 2961 2964 2968 2973 2976 2979 2982
2837 2841 2844 2847 2850 2853 2856 2859 2862 2865 2867 2869 2871 2872 2872 2874 2877 2878 2879 2882 2884 2886 2887 2887 2890 2891 2894 2896 2898 2900 2903 2905 2908 2913 2918 2923 2928 2929 2932 2935 2939 2941 2943 2945 2948 2951 2954 2957 2960 2964 2968 2972 2977 2980
2838 2841 2844 2845 2847 2850 2852 2854 2856 2857 2858 2859 2860 2861 2862 2863 2864 2866 2867 2869 2870 2873 2873 2874 2877 2881 2883 2886 2888 2891 2893 2897 2900 2904 2910 2915 2916 2921 2925 2929 2933 2936 2938 2942 2946 2949 2952 2956 2960 2963 2967 2970 2974 2977
2836 2838 2840 2841 2843 2845 2845 2844 2844 2844 2844 2845 2845 2845 2846 2848 2850 2853 2855 2858 2860 2860 2863 2867 2871 2873 2876 2878 2881 2883 2886 2889 2892 2896 2899 2902 2909 2916 2920 2925 2928 2932 2934 2938 2943 2946 2950 2955 2958 2961 2965 2968 2971 2973
2833 2835 2836 2836 2837 2836 2837 2837 2835 2835 2834 2833 2834 2834 2836 2838 2840 2843 2846 2849 2852 2854 2857 2860 2862 2865 2867 2870 2874 2877 2880 2882 2886 2888 2893 2898 2905 2910 2915 2920 2924 2929 2932 2936 2940 2944 2949 2953 2955 2958 2961 2964 2967 2970